Regional Weather Roundup
Issued by NWS

Home | Current Version | Previous Version | Graphics & Text | Print | Product List | Glossary Off
Versions: 1 2 3 4 5 6 7 8 9 10 11 12 13 14 15 16 17 18 19 20 21 22 23 24 25 26 27 28 29 30 31 32 33 34 35 36 37 38 39 40 41 42 43 44 45 46 47 48 49 50

031
ASUS44 KLIX 021501
RWRLA
LOUISIANA WEATHER ROUNDUP
NATIONAL WEATHER SERVICE NEW ORLEANS LA
900 AM CST MON MAR 02 2015

NOTE: "FAIR" INDICATES FEW OR NO CLOUDS BELOW 12,000 FEET WITH NO
      SIGNIFICANT WEATHER AND/OR OBSTRUCTIONS TO VISIBILITY.
      SKY/WX - SKY CONDITION AND SIGNIFICANT WEATHER.
      TMP - AIR TEMPERATURE.    DP   - DEWPOINT TEMPERATURE.
      RH  - RELATIVE HUMIDITY.  PRES - PRESSURE.
      HX  - HEAT INDEX.         WCI  - WIND CHILL INDEX.

*  THESE STATIONS ARE NOT NWS OR FAA STATIONS AND ARE NOT UNDER
   NWS QUALITY CONTROL.

LAZ040-048-061>063-065-066-069-021600-
SOUTHEAST LOUISIANA

CITY           SKY/WX    TMP DP  RH WIND       PRES   REMARKS
N.O. AUDUBON   NOT AVBL
N.O. INTL ARPT CLOUDY    67  64  90 S7        30.28R FOG
N.O. LAKEFRONT CLOUDY    66  63  90 S7        30.29R
SLIDELL        CLOUDY    66  65  96 SE3       30.28R
BATON ROUGE    FOG       61  60  97 E6        30.28R VSB 1/2
BOOTHVILLE     PTSUNNY   70  69  97 SE7       30.29R
BELLE CHASSE   CLOUDY    67  63  87 S3        30.28R FOG
BOGALUSA*      DRZL/FOG  63  60  90 NE3       30.31R VSB 3/4
GALLIANO*      FOG       54  53  97 CALM      30.29R VSB<1/4
NEW ROADS*     NOT AVBL
GONZALES*      NOT AVBL
HAMMOND*       NOT AVBL
HOUMA*         NOT AVBL
PORT FOURCHON* FOG       66  66 100 E5        30.31R VSB 1/4

$$

LAZ041-044-053-054-021600-
SOUTHWEST LOUISIANA

CITY           SKY/WX    TMP DP  RH WIND       PRES   REMARKS
LAKE CHARLES   CLOUDY    59  58  96 N8        30.27R
LAFAYETTE      FOG       63  62  97 N6        30.27R VSB 1/4
PATTERSON      CLOUDY    64  63  94 SE3       30.28R VSB 3/4
SALT POINT       N/A     65  65 100 VRB5      30.25R
NEW IBERIA     FOG       65  64  97 SE6       30.26S VSB 1/4
CHENAULT AIRPK CLOUDY    57  57 100 VRB6      30.28R

$$

LAZ027-028-021600-
CENTRAL LOUISIANA

CITY           SKY/WX    TMP DP  RH WIND       PRES   REMARKS
FORT POLK      LGT RAIN  48  48 100 N9        30.30R FOG
ALEXANDRIA INT LGT RAIN  46  46 100 N6        30.31R FOG
ALEXANDRIA     CLOUDY    47  45  93 CALM      30.32R

$$

LAZ001-002-021600-
NORTHWEST LOUISIANA

CITY           SKY/WX    TMP DP  RH WIND       PRES   REMARKS
SHREVEPORT     DRIZZLE   42  41  96 NE8       30.36R FOG
BARKSDALE AFB  NOT AVBL
DTN SHREVEPORT CLOUDY    41  39  93 NE8       30.37R FOG

$$

LAZ014-016-021600-
NORTHEAST LOUISIANA

CITY           SKY/WX    TMP DP  RH WIND       PRES   REMARKS
MONROE         CLOUDY    41  39  93 NE14      30.39R
TALLULAH       CLOUDY    43  42  97 N10       30.37R FOG

$$




USA.gov is the U.S. government's official web portal to all federal, state and local government web resources and services.